ANA1723 ROAH-ROMY

Flight info

Callsign ANA1723
Flight time 0h 34m
Altitude 26000
Route GANJU Y576 YUTAH
Aircraft B738/M-SDE2E3FGHIRWXY/LB1

Departure

Time 2026-04-21 12:00
Airport Naha International Airport (ROAH)

Arrival

Time 2026-04-21 12:35
Airport Miyako Airport (ROMY)
Time Latitude Longitude Altitude Speed Heading
2026-04-21 11:43 26.20724 127.64922 19 ft 0 kts 27°
2026-04-21 11:54 26.20706 127.64912 19 ft 3 kts 27°
2026-04-21 11:55 26.20685 127.64899 19 ft 3 kts 27°
2026-04-21 11:55 26.20663 127.64887 19 ft 3 kts 27°
2026-04-21 11:55 26.20641 127.64877 19 ft 3 kts
2026-04-21 11:55 26.20620 127.64885 19 ft 4 kts 326°
2026-04-21 11:56 26.20600 127.64899 19 ft 3 kts 327°
2026-04-21 11:56 26.20598 127.64901 19 ft 0 kts 327°
2026-04-21 11:57 26.20614 127.64889 19 ft 7 kts 327°
2026-04-21 11:58 26.20659 127.64836 19 ft 7 kts 262°
2026-04-21 11:58 26.20648 127.64808 19 ft 8 kts 247°
2026-04-21 11:58 26.20676 127.64750 19 ft 12 kts 330°
2026-04-21 11:58 26.20778 127.64737 19 ft 18 kts 358°
2026-04-21 11:59 26.20903 127.64694 19 ft 17 kts 285°
2026-04-21 11:59 26.20902 127.64577 19 ft 14 kts 268°
2026-04-21 11:59 26.20861 127.64531 19 ft 9 kts 194°
2026-04-21 11:59 26.20564 127.64541 19 ft 84 kts 178°
2026-04-21 12:00 26.19710 127.64583 23 ft 158 kts 178°
2026-04-21 12:00 26.18532 127.64626 666 ft 175 kts 177°
2026-04-21 12:00 26.17277 127.64660 1536 ft 192 kts 176°
2026-04-21 12:00 26.15879 127.64734 2190 ft 212 kts 176°
2026-04-21 12:01 26.14302 127.64822 2554 ft 242 kts 175°
2026-04-21 12:01 26.12557 127.64917 3233 ft 258 kts 177°
2026-04-21 12:01 26.10758 127.64709 4066 ft 269 kts 192°
2026-04-21 12:01 26.08947 127.64104 5006 ft 275 kts 198°
2026-04-21 12:02 26.07146 127.63352 5960 ft 279 kts 200°
2026-04-21 12:02 26.03449 127.61850 7841 ft 286 kts 199°
2026-04-21 12:02 26.01564 127.61120 8751 ft 290 kts 199°
2026-04-21 12:03 25.99644 127.60386 9602 ft 294 kts 199°
2026-04-21 12:03 25.97695 127.59607 10354 ft 302 kts 204°
2026-04-21 12:03 25.95867 127.58405 11031 ft 310 kts 219°
2026-04-21 12:03 25.94272 127.56742 11596 ft 322 kts 230°
2026-04-21 12:04 25.92843 127.54760 12085 ft 335 kts 234°
2026-04-21 12:04 25.91409 127.52641 12468 ft 351 kts 233°
2026-04-21 12:04 25.89867 127.50449 12738 ft 369 kts 232°
2026-04-21 12:04 25.88226 127.48194 13054 ft 382 kts 231°
2026-04-21 12:05 25.86534 127.45894 13639 ft 386 kts 231°
2026-04-21 12:05 25.84827 127.43578 14273 ft 389 kts 231°
2026-04-21 12:05 25.83148 127.41219 14880 ft 391 kts 235°
2026-04-21 12:05 25.81945 127.38508 15463 ft 394 kts 251°
2026-04-21 12:06 25.81477 127.35502 16028 ft 399 kts 265°
2026-04-21 12:06 25.81530 127.32400 16580 ft 403 kts 272°
2026-04-21 12:06 25.81822 127.29292 17111 ft 407 kts 275°
2026-04-21 12:06 25.82188 127.26168 17629 ft 409 kts 275°
2026-04-21 12:07 25.82527 127.23021 18131 ft 412 kts 274°
2026-04-21 12:07 25.82845 127.19853 18623 ft 414 kts 274°
2026-04-21 12:07 25.83146 127.16708 19101 ft 416 kts 274°
2026-04-21 12:07 25.83446 127.13507 19566 ft 418 kts 274°
2026-04-21 12:08 25.83742 127.10288 20011 ft 420 kts 274°
2026-04-21 12:08 25.84045 127.07056 20445 ft 422 kts 274°
2026-04-21 12:08 25.84369 127.03806 20869 ft 424 kts 274°
2026-04-21 12:08 25.84677 127.00548 21261 ft 426 kts 274°
2026-04-21 12:09 25.84977 126.97266 21651 ft 428 kts 274°
2026-04-21 12:09 25.85274 126.93971 22012 ft 430 kts 273°
2026-04-21 12:09 25.85569 126.90669 22371 ft 432 kts 273°
2026-04-21 12:09 25.85865 126.87345 22726 ft 433 kts 273°
2026-04-21 12:10 25.86162 126.84008 23063 ft 435 kts 273°
2026-04-21 12:10 25.86458 126.80664 23368 ft 437 kts 273°
2026-04-21 12:10 25.86743 126.77302 23688 ft 438 kts 271°
2026-04-21 12:10 25.86625 126.73939 23988 ft 436 kts 260°
2026-04-21 12:11 25.85905 126.70679 24249 ft 437 kts 250°
2026-04-21 12:11 25.84735 126.67551 24467 ft 439 kts 244°
2026-04-21 12:11 25.83324 126.64537 24736 ft 441 kts 241°
2026-04-21 12:11 25.81794 126.61582 24980 ft 443 kts 240°
2026-04-21 12:12 25.80238 126.58639 25330 ft 441 kts 240°
2026-04-21 12:12 25.78703 126.55706 25761 ft 439 kts 240°
2026-04-21 12:12 25.77172 126.52763 25997 ft 441 kts 240°
2026-04-21 12:12 25.75634 126.49797 26022 ft 443 kts 240°
2026-04-21 12:13 25.74099 126.46830 26023 ft 443 kts 240°
2026-04-21 12:13 25.72571 126.43875 26023 ft 442 kts 240°
2026-04-21 12:13 25.71040 126.40914 26023 ft 442 kts 240°
2026-04-21 12:13 25.69520 126.37957 26023 ft 442 kts 241°
2026-04-21 12:14 25.68021 126.35023 26023 ft 442 kts 241°
2026-04-21 12:14 25.66505 126.32071 26023 ft 442 kts 240°
2026-04-21 12:14 25.64979 126.29109 26023 ft 442 kts 240°
2026-04-21 12:14 25.63453 126.26150 26023 ft 442 kts 240°
2026-04-21 12:15 25.61922 126.23188 26031 ft 444 kts 241°
2026-04-21 12:15 25.60382 126.20210 26041 ft 447 kts 241°
2026-04-21 12:15 25.58840 126.17212 26047 ft 448 kts 242°
2026-04-21 12:15 25.57301 126.14219 26051 ft 447 kts 241°
2026-04-21 12:16 25.55754 126.11232 26052 ft 447 kts 241°
2026-04-21 12:16 25.54205 126.08248 26052 ft 447 kts 241°
2026-04-21 12:16 25.52653 126.05264 26045 ft 447 kts 241°
2026-04-21 12:16 25.51102 126.02286 25611 ft 444 kts 241°
2026-04-21 12:17 25.49565 125.99336 24622 ft 443 kts 241°
2026-04-21 12:17 25.48027 125.96385 23872 ft 440 kts 240°
2026-04-21 12:17 25.46510 125.93474 23165 ft 435 kts 241°
2026-04-21 12:17 25.45007 125.90593 22466 ft 430 kts 241°
2026-04-21 12:18 25.43520 125.87739 21771 ft 426 kts 241°
2026-04-21 12:18 25.42053 125.84918 21083 ft 421 kts 241°
2026-04-21 12:18 25.40595 125.82122 20398 ft 417 kts 241°
2026-04-21 12:18 25.39150 125.79354 19718 ft 414 kts 241°
2026-04-21 12:19 25.37714 125.76609 19040 ft 410 kts 241°
2026-04-21 12:19 25.36224 125.73940 18365 ft 407 kts 236°
2026-04-21 12:19 25.34500 125.71474 17701 ft 404 kts 231°
2026-04-21 12:19 25.32571 125.69214 17023 ft 402 kts 226°
2026-04-21 12:20 25.30535 125.67104 16351 ft 400 kts 224°
2026-04-21 12:20 25.28455 125.65071 15684 ft 398 kts 223°
2026-04-21 12:20 25.26389 125.63059 15022 ft 395 kts 223°
2026-04-21 12:20 25.24341 125.61058 14368 ft 392 kts 223°
2026-04-21 12:21 25.22331 125.59086 13721 ft 390 kts 223°
2026-04-21 12:21 25.20307 125.57099 13073 ft 387 kts 223°
2026-04-21 12:21 25.18299 125.55125 12340 ft 387 kts 223°
2026-04-21 12:21 25.16287 125.53147 11595 ft 387 kts 223°
2026-04-21 12:22 25.14284 125.51175 10938 ft 385 kts 223°
2026-04-21 12:22 25.12297 125.49222 10448 ft 378 kts 223°
2026-04-21 12:22 25.10371 125.47329 10403 ft 360 kts 223°
2026-04-21 12:22 25.08554 125.45530 10374 ft 344 kts 223°
2026-04-21 12:23 25.06810 125.43805 10296 ft 330 kts 223°
2026-04-21 12:23 25.05130 125.42149 10217 ft 317 kts 223°
2026-04-21 12:23 25.03516 125.40558 10137 ft 306 kts 223°
2026-04-21 12:23 25.01961 125.39019 10059 ft 295 kts 223°
2026-04-21 12:24 25.00459 125.37533 9944 ft 286 kts 223°
2026-04-21 12:24 24.98978 125.36074 9633 ft 285 kts 223°
2026-04-21 12:24 24.97494 125.34616 9308 ft 285 kts 223°
2026-04-21 12:24 24.96017 125.33166 8982 ft 284 kts 223°
2026-04-21 12:25 24.94540 125.31718 8656 ft 284 kts 223°
2026-04-21 12:25 24.93068 125.30276 8327 ft 283 kts 223°
2026-04-21 12:25 24.91592 125.28831 7995 ft 283 kts 222°
2026-04-21 12:25 24.90135 125.27405 7666 ft 279 kts 222°
2026-04-21 12:26 24.88697 125.25998 7338 ft 275 kts 222°
2026-04-21 12:26 24.87277 125.24609 7009 ft 271 kts 222°
2026-04-21 12:26 24.85876 125.23239 6684 ft 267 kts 222°
2026-04-21 12:26 24.84493 125.21887 6363 ft 264 kts 222°
2026-04-21 12:27 24.83145 125.20570 6050 ft 262 kts 222°
2026-04-21 12:27 24.81783 125.19239 5731 ft 262 kts 221°
2026-04-21 12:27 24.80420 125.17908 5412 ft 262 kts 221°
2026-04-21 12:27 24.79061 125.16579 5096 ft 262 kts 221°
2026-04-21 12:28 24.77690 125.15262 4878 ft 264 kts 219°
2026-04-21 12:28 24.76228 125.14002 4356 ft 267 kts 217°
2026-04-21 12:28 24.74771 125.12785 3942 ft 260 kts 217°
2026-04-21 12:28 24.73345 125.11573 3551 ft 257 kts 216°
2026-04-21 12:29 24.71775 125.10673 3152 ft 254 kts 192°
2026-04-21 12:29 24.70063 125.10801 2867 ft 246 kts 157°
2026-04-21 12:29 24.68839 125.11932 2750 ft 221 kts 122°
2026-04-21 12:29 24.68194 125.13371 2631 ft 200 kts 115°
2026-04-21 12:30 24.67532 125.14652 2481 ft 189 kts 122°
2026-04-21 12:30 24.66779 125.15830 2412 ft 184 kts 125°
2026-04-21 12:30 24.66029 125.16957 2323 ft 179 kts 121°
2026-04-21 12:30 24.65784 125.18222 2146 ft 170 kts 82°
2026-04-21 12:31 24.66363 125.19331 2109 ft 168 kts 50°
2026-04-21 12:31 24.67252 125.20164 2063 ft 169 kts 39°
2026-04-21 12:31 24.68220 125.20926 1956 ft 172 kts 38°
2026-04-21 12:31 24.69157 125.21699 1853 ft 172 kts 39°
2026-04-21 12:32 24.70134 125.22499 1750 ft 170 kts 38°
2026-04-21 12:32 24.71045 125.23266 1678 ft 158 kts 40°
2026-04-21 12:32 24.71873 125.23977 1590 ft 146 kts 40°
2026-04-21 12:32 24.72664 125.24662 1432 ft 144 kts 40°
2026-04-21 12:33 24.73452 125.25344 1247 ft 144 kts 40°
2026-04-21 12:33 24.74241 125.26029 1058 ft 144 kts 40°
2026-04-21 12:33 24.75025 125.26709 865 ft 143 kts 40°
2026-04-21 12:33 24.75809 125.27389 675 ft 144 kts 40°
2026-04-21 12:34 24.76589 125.28065 482 ft 142 kts 40°
2026-04-21 12:34 24.77364 125.28722 288 ft 140 kts 40°
2026-04-21 12:34 24.78122 125.29367 171 ft 129 kts 40°
2026-04-21 12:34 24.78766 125.29932 149 ft 98 kts 41°
2026-04-21 12:35 24.79000 125.30135 148 ft 1 kts 38°
2026-04-21 12:35 24.78993 125.30164 148 ft 6 kts 174°
2026-04-21 12:35 24.78960 125.30123 148 ft 12 kts 233°
2026-04-21 12:35 24.78893 125.30042 148 ft 16 kts 219°
2026-04-21 12:36 24.78794 125.29957 148 ft 20 kts 218°
2026-04-21 12:36 24.78674 125.29853 148 ft 22 kts 219°
2026-04-21 12:36 24.78546 125.29742 148 ft 25 kts 218°
2026-04-21 12:36 24.78409 125.29624 148 ft 23 kts 217°
2026-04-21 12:37 24.78291 125.29532 148 ft 15 kts 185°
2026-04-21 12:37 24.78216 125.29605 148 ft 15 kts 128°
2026-04-21 12:37 24.78150 125.29694 148 ft 15 kts 146°
2026-04-21 12:37 24.78079 125.29728 148 ft 11 kts 133°
2026-04-21 12:38 24.78060 125.29756 148 ft 0 kts 128°